Ballina Observation History
Time Wind Speed Temp Pressure Rel. Hum Rain
21/10:00pm NNE 4-10 kts 24.2°c 1007.5 hPa 83% 0.0mm
21/09:30pm E 2-7 kts 25.6°c 1007.1 hPa 70% 0.0mm
21/09:00pm NNW 7-10 kts 27.2°c 1007.0 hPa 64% 0.0mm
21/08:30pm NNW 8-12 kts 27.3°c 1006.9 hPa 56% 0.0mm
21/08:00pm N 7-10 kts 27.1°c 1006.8 hPa 59% 0.0mm
21/07:30pm N 11-15 kts 27.0°c 1006.6 hPa 63% 0.0mm
21/07:00pm N 13-18 kts 27.7°c 1005.7 hPa 73% 0.0mm
21/06:30pm N 15-23 kts 28.9°c 1005.7 hPa 78% 0.0mm
21/06:15pm N 18-28 kts 29.4°c 1005.4 hPa 75% 0.0mm
21/06:00pm N 16-23 kts 29.4°c 1005.3 hPa 75% 0.0mm
21/05:53pm NNE 18-28 kts 29.3°c 1005.2 hPa 75% 0.0mm
21/05:30pm NNE 17-26 kts 29.7°c 1004.7 hPa 73% 0.0mm
21/05:19pm NNE 15-25 kts 30.1°c 1004.7 hPa 72% 0.0mm
21/05:00pm N 17-25 kts 30.1°c 1004.9 hPa 71% 0.0mm
21/04:36pm NNE 15-25 kts 30.7°c 1005.2 hPa 68% 0.0mm
21/04:30pm NNE 17-24 kts 30.9°c 1005.1 hPa 70% 0.0mm
21/04:00pm NNE 14-22 kts 31.3°c 1005.5 hPa 66% 0.0mm
21/03:30pm NNE 13-19 kts 32.1°c 1005.8 hPa 63% 0.0mm
21/03:00pm NE 14-18 kts 31.9°c 1006.3 hPa 67% 0.0mm
21/02:30pm NE 14-19 kts 31.7°c 1006.6 hPa 67% 0.0mm
21/02:00pm NE 15-19 kts 32.2°c 1007.0 hPa 67% 0.0mm
21/01:30pm NNE 12-17 kts 32.1°c 1007.4 hPa 59% 0.0mm
21/01:00pm ENE 13-17 kts 32.2°c 1007.5 hPa 59% 0.0mm
21/12:30pm NE 13-15 kts 31.7°c 1007.9 hPa 62% 0.0mm
21/12:00pm NE 12-14 kts 31.4°c 1008.1 hPa 61% 0.0mm
21/11:30am NE 12-14 kts 30.9°c 1008.4 hPa 64% 0.0mm
21/11:00am NE 10-13 kts 31.3°c 1008.4 hPa 71% 0.0mm
21/10:30am NE 7-10 kts 31.1°c 1008.4 hPa 70% 0.0mm
21/10:00am N 7-11 kts 30.1°c 1008.5 hPa 69% 0.0mm
21/09:30am NE 7-9 kts 29.7°c 1008.6 hPa 76% 0.0mm
21/09:00am N 3-5 kts 28.6°c 1008.5 hPa 75% 0.6mm
21/08:30am N 8-10 kts 27.6°c 1008.6 hPa 82% 0.6mm
21/08:00am N 6-8 kts 26.5°c 1008.4 hPa 86% 0.6mm
21/07:30am NNW 3-5 kts 25.4°c 1007.9 hPa 91% 0.6mm
21/07:00am NNE 6-8 kts 24.5°c 1007.6 hPa 95% 0.6mm
21/06:30am CALM 0-2 kts 23.3°c 1007.6 hPa 95% 0.6mm
21/06:00am NW 3-4 kts 23.3°c 1007.3 hPa 94% 0.6mm
21/05:30am N 3-4 kts 24.0°c 1006.9 hPa 90% 0.6mm
21/05:00am NNE 5-8 kts 24.7°c 1006.5 hPa 91% 0.6mm
21/04:30am N 6-9 kts 24.8°c 1006.1 hPa 90% 0.6mm
21/04:00am NNE 4-5 kts 25.0°c 1006.0 hPa 88% 0.6mm
21/03:30am NNW 7-10 kts 25.5°c 1006.3 hPa 87% 0.6mm
21/03:00am NNW 11-14 kts 25.7°c 1006.3 hPa 86% 0.6mm
21/02:30am N 9-14 kts 25.4°c 1006.3 hPa 86% 0.6mm
21/02:00am N 11-18 kts 25.5°c 1006.1 hPa 84% 0.6mm
21/01:30am N 11-16 kts 25.3°c 1006.6 hPa 83% 0.6mm
21/01:00am N 10-15 kts 25.2°c 1007.0 hPa 81% 0.6mm
21/12:30am N 8-12 kts 25.1°c 1007.2 hPa 78% 0.6mm
21/12:00am N 9-14 kts 25.5°c 1007.4 hPa 74% 0.6mm
Time Wind Speed Temp Pressure Rel. Hum Rain
20/11:30pm N 9-13 kts 26.5°c 1007.3 hPa 70% 0.6mm
20/11:00pm N 9-13 kts 25.7°c 1007.4 hPa 79% 0.6mm
20/10:30pm N 9-14 kts 25.8°c 1007.4 hPa 80% 0.6mm
20/10:00pm N 12-19 kts 26.0°c 1007.1 hPa 87% 0.6mm
20/09:30pm N 12-19 kts 25.9°c 1006.9 hPa 88% 0.6mm
20/09:00pm N 16-27 kts 26.0°c 1006.5 hPa 88% 0.6mm
20/08:36pm N 16-26 kts 26.0°c 1006.4 hPa 90% 0.6mm
20/08:30pm N 16-25 kts 25.9°c 1006.4 hPa 90% 0.6mm
20/08:00pm N 13-19 kts 25.6°c 1006.2 hPa 92% 0.6mm
20/07:30pm N 10-18 kts 25.1°c 1005.8 hPa 92% 0.6mm
20/07:00pm NE 11-15 kts 24.3°c 1005.8 hPa 89% 0.6mm
20/06:30pm NNE 10-16 kts 25.6°c 1005.3 hPa 90% 0.4mm
20/06:00pm N 13-18 kts 25.9°c 1005.6 hPa 92% 0.4mm
20/05:30pm N 13-19 kts 26.9°c 1005.4 hPa 86% 0.0mm
20/05:00pm NNE 11-17 kts 27.4°c 1004.5 hPa 83% 0.0mm
20/04:30pm NNE 13-20 kts 27.6°c 1004.4 hPa 80% 0.0mm
20/04:00pm NNE 15-23 kts 27.9°c 1004.2 hPa 78% 0.0mm
20/03:47pm NNE 15-25 kts 28.2°c 1004.4 hPa 76% 0.0mm
20/03:30pm N 14-20 kts 28.9°c 1004.5 hPa 75% 0.0mm
20/03:00pm NNE 15-22 kts 29.3°c 1004.8 hPa 75% 0.0mm
20/02:30pm N 11-19 kts 30.4°c 1005.0 hPa 70% 0.0mm
20/02:00pm NE 13-18 kts 31.7°c 1005.2 hPa 69% 0.0mm
20/01:30pm NE 14-18 kts 31.5°c 1005.6 hPa 70% 0.0mm
20/01:00pm NE 14-19 kts 31.7°c 1005.8 hPa 69% 0.0mm
20/12:30pm NE 14-21 kts 31.0°c 1006.1 hPa 68% 0.0mm
20/12:00pm NNE 13-18 kts 31.2°c 1006.3 hPa 66% 0.0mm
20/11:30am NNE 11-17 kts 31.0°c 1006.6 hPa 70% 0.0mm
20/11:00am NE 8-14 kts 30.3°c 1006.8 hPa 68% 0.0mm
20/10:30am N 9-15 kts 30.9°c 1006.8 hPa 66% 0.0mm
20/10:00am N 7-11 kts 29.9°c 1006.9 hPa 72% 0.0mm
20/09:30am N 11-18 kts 28.8°c 1006.9 hPa 77% 0.0mm
20/09:00am N 13-16 kts 27.8°c 1006.8 hPa 79% 0.0mm
20/08:30am N 12-16 kts 27.2°c 1006.9 hPa 81% 0.0mm
20/08:00am NNE 10-16 kts 26.4°c 1006.8 hPa 85% 0.0mm
20/07:30am N 7-11 kts 25.6°c 1006.8 hPa 88% 0.0mm
20/07:00am NNE 7-11 kts 24.5°c 1006.5 hPa 91% 0.0mm
20/06:30am NNE 7-10 kts 23.9°c 1006.2 hPa 93% 0.0mm
20/06:00am NNE 6-10 kts 23.6°c 1006.0 hPa 92% 0.0mm
20/05:30am N 8-11 kts 23.7°c 1005.7 hPa 92% 0.0mm
20/05:00am NNE 9-12 kts 23.6°c 1005.6 hPa 90% 0.0mm
20/04:33am N 9-13 kts 23.9°c 1005.7 hPa 92% 0.0mm
20/04:30am N 9-15 kts 23.9°c 1005.6 hPa 92% 0.0mm
20/04:00am NNE 8-13 kts 24.2°c 1005.6 hPa 92% 0.0mm
20/03:30am NNE 9-15 kts 24.2°c 1005.6 hPa 92% 0.0mm
20/03:00am NNE 8-11 kts 23.8°c 1005.7 hPa 90% 0.0mm
20/02:51am NNE 8-11 kts 23.8°c 1005.7 hPa 90% 0.0mm
20/02:48am NNE 8-11 kts 23.8°c 1005.7 hPa 90% 0.0mm
20/02:30am NNE 7-10 kts 23.9°c 1005.6 hPa 92% 0.0mm
20/02:12am N 9-12 kts 24.0°c 1005.8 hPa 92% 0.0mm
20/02:00am NNE 7-11 kts 23.6°c 1005.8 hPa 92% 0.0mm
20/01:30am NNW 7-9 kts 23.4°c 1005.7 hPa 89% 0.0mm
20/01:00am NNE 8-12 kts 23.9°c 1006.0 hPa 92% 0.0mm
20/12:30am N 9-14 kts 24.0°c 1006.4 hPa 90% 0.0mm
20/12:00am NNE 8-11 kts 24.5°c 1006.2 hPa 92% 0.0mm
Time Wind Speed Temp Pressure Rel. Hum Rain
19/11:30pm NNE 9-15 kts 24.9°c 1006.3 hPa 91% 0.0mm
19/11:00pm N 8-11 kts 24.9°c 1006.7 hPa 89% 0.0mm
19/10:30pm N 10-15 kts 25.3°c 1006.5 hPa 86% 0.0mm
19/10:00pm NNE 9-14 kts 25.6°c 1006.3 hPa 86% 0.0mm
19/09:30pm NNE 9-14 kts 25.5°c 1006.2 hPa 86% 0.0mm
19/09:00pm NNE 8-11 kts 25.3°c 1005.9 hPa 85% 0.0mm
19/08:30pm NNE 9-11 kts 25.2°c 1005.3 hPa 86% 0.0mm
19/08:00pm N 10-13 kts 25.5°c 1005.1 hPa 85% 0.0mm
19/07:30pm NNE 11-16 kts 26.0°c 1004.9 hPa 83% 0.0mm
19/07:00pm NNE 9-13 kts 26.3°c 1004.6 hPa 83% 0.0mm
19/06:30pm NNE 12-18 kts 27.1°c 1004.2 hPa 76% 0.0mm
19/06:00pm NNE 12-16 kts 28.1°c 1003.9 hPa 74% 0.0mm
19/05:30pm NNE 11-15 kts 26.8°c 1004.1 hPa 79% 0.0mm
19/05:00pm NNE 14-19 kts 26.4°c 1003.6 hPa 79% 0.0mm
19/04:30pm NE 15-21 kts 27.5°c 1003.8 hPa 76% 0.0mm
19/04:00pm NE 9-13 kts 28.1°c 1004.3 hPa 76% 0.0mm
19/03:30pm NNE 8-12 kts 27.6°c 1004.3 hPa 81% 0.0mm
19/03:00pm NE 9-14 kts 26.4°c 1004.5 hPa 80% 0.0mm
19/02:30pm NE 11-15 kts 26.6°c 1004.8 hPa 78% 0.0mm
19/02:00pm E 10-15 kts 27.7°c 1005.0 hPa 79% 0.0mm
19/01:30pm E 9-13 kts 28.1°c 1005.1 hPa 77% 0.0mm
19/01:00pm ESE 10-13 kts 27.1°c 1005.5 hPa 78% 0.0mm
19/12:30pm E 9-13 kts 27.1°c 1005.6 hPa 82% 0.0mm
19/12:00pm SE 8-11 kts 26.7°c 1005.9 hPa 77% 0.0mm
19/11:30am ESE 10-13 kts 26.9°c 1006.2 hPa 79% 0.0mm
19/11:00am SE 9-12 kts 26.5°c 1006.2 hPa 81% 0.0mm
19/10:30am SSE 9-11 kts 25.6°c 1006.4 hPa 81% 0.0mm
19/10:00am S 1-3 kts 25.5°c 1006.2 hPa 82% 0.0mm
19/09:30am WSW 2-6 kts 24.4°c 1006.2 hPa 88% 0.0mm
19/09:26am WSW 5-8 kts 24.4°c 1006.1 hPa 88% 0.0mm
19/09:00am WSW 5-7 kts 23.7°c 1006.0 hPa 92% 74.8mm
19/08:30am WSW 6-9 kts 23.2°c 1006.3 hPa 96% 74.8mm
19/08:00am WSW 7-9 kts 22.4°c 1006.3 hPa 99% 74.8mm
19/07:30am W 4-6 kts 21.8°c 1006.1 hPa 99% 74.8mm
19/07:15am W 4-5 kts 21.7°c 1005.7 hPa 99% 74.8mm
19/07:00am SW 4-6 kts 21.5°c 1005.4 hPa 99% 74.8mm
19/06:30am CALM 0-3 kts 21.0°c 1005.0 hPa 99% 74.8mm
19/06:21am CALM 0 kts 20.8°c 1005.0 hPa 99% 74.8mm
19/06:00am W 4-5 kts 20.6°c 1004.6 hPa 99% 74.6mm
19/05:30am WSW 4-5 kts 20.6°c 1004.3 hPa 99% 74.6mm
19/05:00am W 5-7 kts 20.7°c 1004.0 hPa 99% 74.6mm
19/04:39am W 6-7 kts 20.7°c 1004.0 hPa 99% 74.6mm
19/04:30am WNW 6-7 kts 21.2°c 1003.9 hPa 99% 74.6mm
19/04:09am NW 4-5 kts 21.1°c 1003.8 hPa 98% 74.6mm
19/04:00am NW 5 kts 21.4°c 1003.9 hPa 98% 74.6mm
19/03:30am NNW 4-5 kts 21.9°c 1004.0 hPa 98% 74.6mm
19/03:00am NNW 5 kts 22.1°c 1003.8 hPa 97% 74.6mm
19/02:30am N 6-9 kts 22.6°c 1004.0 hPa 97% 74.6mm
19/02:00am NNE 9-13 kts 22.5°c 1004.4 hPa 98% 74.6mm
19/01:30am NE 9-14 kts 22.5°c 1004.5 hPa 98% 74.6mm
19/01:20am N 12-17 kts 22.5°c 1004.4 hPa 98% 74.6mm
19/01:01am NNE 15-22 kts 21.3°c 1004.2 hPa 96% 74.2mm
19/01:00am NNE 15-22 kts 21.1°c 1004.4 hPa 96% 74.0mm
19/12:30am NE 15-21 kts 22.7°c 1005.0 hPa 97% 67.0mm
19/12:13am ENE 12-15 kts 23.2°c 1005.2 hPa 95% 61.2mm
19/12:00am NE 11-15 kts 23.4°c 1005.2 hPa 94% 60.8mm